TimeCST,TemperatureF,Dew PointF,Humidity,Sea Level PressureIn,VisibilityMPH,Wind Direction,Wind SpeedMPH,Gust SpeedMPH,PrecipitationIn,Events,Conditions,WindDirDegrees,DateUTC
12:15 AM,15.8,15.8,100,30.05,10.0,SE,4.6,-,N/A,,Clear,140,2013-11-08 06:15:00
12:35 AM,17.6,17.6,100,30.05,10.0,SE,4.6,-,N/A,,Clear,140,2013-11-08 06:35:00
12:55 AM,17.6,17.6,100,30.04,10.0,SE,6.9,-,N/A,,Clear,140,2013-11-08 06:55:00
1:15 AM,17.6,17.6,100,30.03,10.0,SE,4.6,-,N/A,,Clear,140,2013-11-08 07:15:00
1:35 AM,19.4,19.4,100,30.02,10.0,South,5.8,-,N/A,,Clear,170,2013-11-08 07:35:00
1:55 AM,23.0,23.0,100,30.01,10.0,SSE,6.9,-,N/A,,Clear,150,2013-11-08 07:55:00
2:15 AM,24.8,24.8,100,30.01,10.0,SSE,6.9,-,N/A,,Partly Cloudy,160,2013-11-08 08:15:00
2:35 AM,24.8,24.8,100,30.00,10.0,SSE,5.8,-,N/A,,Clear,150,2013-11-08 08:35:00
2:55 AM,26.6,24.8,93,29.99,10.0,SE,5.8,-,N/A,,Clear,140,2013-11-08 08:55:00
3:15 AM,26.6,26.6,100,29.97,10.0,SE,9.2,-,N/A,,Scattered Clouds,140,2013-11-08 09:15:00
3:35 AM,26.6,26.6,100,29.96,10.0,SE,6.9,-,N/A,,Mostly Cloudy,130,2013-11-08 09:35:00
3:55 AM,26.6,26.6,100,29.95,10.0,ESE,4.6,-,N/A,,Scattered Clouds,120,2013-11-08 09:55:00
4:15 AM,28.4,26.6,93,29.93,10.0,ESE,8.1,-,N/A,,Mostly Cloudy,120,2013-11-08 10:15:00
4:35 AM,32.0,28.4,87,29.92,10.0,SE,10.4,-,N/A,,Mostly Cloudy,130,2013-11-08 10:35:00
4:55 AM,30.2,26.6,86,29.90,10.0,SE,12.7,-,N/A,,Mostly Cloudy,140,2013-11-08 10:55:00
5:15 AM,32.0,26.6,80,29.89,10.0,SE,12.7,-,N/A,,Partly Cloudy,140,2013-11-08 11:15:00
5:35 AM,32.0,26.6,80,29.87,10.0,SE,16.1,20.7,N/A,,Clear,140,2013-11-08 11:35:00
5:55 AM,32.0,26.6,80,29.86,10.0,SE,13.8,-,N/A,,Scattered Clouds,140,2013-11-08 11:55:00
6:15 AM,32.0,26.6,80,29.84,10.0,SE,15.0,-,N/A,,Mostly Cloudy,130,2013-11-08 12:15:00
6:35 AM,32.0,26.6,80,29.82,10.0,SE,18.4,-,N/A,,Partly Cloudy,130,2013-11-08 12:35:00
6:55 AM,32.0,26.6,80,29.80,10.0,SE,20.7,25.3,N/A,,Clear,140,2013-11-08 12:55:00
7:15 AM,32.0,26.6,80,29.78,10.0,SE,19.6,-,N/A,,Clear,130,2013-11-08 13:15:00
7:35 AM,33.8,28.4,81,29.77,10.0,SE,19.6,26.5,N/A,,Clear,130,2013-11-08 13:35:00
7:55 AM,33.8,28.4,81,29.75,10.0,ESE,18.4,24.2,N/A,Snow,Light Snow,120,2013-11-08 13:55:00
8:15 AM,33.8,28.4,81,29.74,10.0,SE,20.7,26.5,N/A,Snow,Light Snow,130,2013-11-08 14:15:00
8:35 AM,35.6,28.4,75,29.72,10.0,ESE,19.6,28.8,N/A,Snow,Light Snow,120,2013-11-08 14:35:00
8:55 AM,35.6,28.4,75,29.72,10.0,SE,16.1,25.3,N/A,Snow,Light Snow,130,2013-11-08 14:55:00
9:15 AM,35.6,28.4,75,29.71,10.0,SE,20.7,32.2,N/A,Snow,Light Snow,130,2013-11-08 15:15:00
9:35 AM,37.4,28.4,70,29.70,10.0,SE,24.2,31.1,N/A,Snow,Light Snow,130,2013-11-08 15:35:00
9:55 AM,37.4,28.4,70,29.70,10.0,SE,21.9,26.5,N/A,Snow,Light Snow,140,2013-11-08 15:55:00
10:15 AM,35.6,28.4,75,29.68,10.0,SE,21.9,29.9,N/A,Snow,Light Snow,130,2013-11-08 16:15:00
10:35 AM,37.4,28.4,70,29.67,10.0,SE,21.9,27.6,N/A,,Clear,130,2013-11-08 16:35:00
10:55 AM,37.4,28.4,70,29.65,10.0,SE,24.2,34.5,N/A,Snow,Light Snow,140,2013-11-08 16:55:00
11:15 AM,37.4,28.4,70,29.63,10.0,SE,25.3,34.5,N/A,Snow,Light Snow,130,2013-11-08 17:15:00
11:35 AM,37.4,28.4,70,29.63,10.0,SE,24.2,28.8,N/A,Snow,Light Snow,140,2013-11-08 17:35:00
11:55 AM,37.4,28.4,70,29.63,10.0,SE,20.7,25.3,N/A,,Partly Cloudy,140,2013-11-08 17:55:00
12:15 PM,39.2,28.4,65,29.61,10.0,SE,18.4,25.3,N/A,,Scattered Clouds,140,2013-11-08 18:15:00
12:35 PM,39.2,28.4,65,29.60,10.0,SE,17.3,-,N/A,,Mostly Cloudy,140,2013-11-08 18:35:00
12:55 PM,39.2,28.4,65,29.59,10.0,SSE,20.7,25.3,N/A,,Mostly Cloudy,150,2013-11-08 18:55:00
1:15 PM,39.2,28.4,65,29.57,10.0,SE,16.1,24.2,N/A,,Overcast,140,2013-11-08 19:15:00
1:35 PM,39.2,28.4,65,29.57,10.0,SE,16.1,20.7,N/A,,Mostly Cloudy,140,2013-11-08 19:35:00
1:55 PM,39.2,28.4,65,29.55,10.0,SSE,16.1,-,N/A,,Mostly Cloudy,150,2013-11-08 19:55:00
2:15 PM,39.2,28.4,65,29.55,10.0,SSE,16.1,-,N/A,,Mostly Cloudy,150,2013-11-08 20:15:00
2:35 PM,39.2,28.4,65,29.55,10.0,SSE,13.8,-,N/A,,Scattered Clouds,150,2013-11-08 20:35:00
2:55 PM,39.2,28.4,65,29.54,10.0,SSE,12.7,-,N/A,,Mostly Cloudy,150,2013-11-08 20:55:00
3:15 PM,39.2,28.4,65,29.54,10.0,SE,11.5,-,N/A,,Overcast,140,2013-11-08 21:15:00
3:35 PM,39.2,28.4,65,29.54,10.0,SE,11.5,-,N/A,,Overcast,140,2013-11-08 21:35:00
3:55 PM,39.2,28.4,65,29.54,10.0,SSE,10.4,-,N/A,,Overcast,160,2013-11-08 21:55:00
4:15 PM,37.4,28.4,70,29.54,10.0,SSE,8.1,-,N/A,,Overcast,150,2013-11-08 22:15:00
4:35 PM,37.4,28.4,70,29.54,10.0,SSE,9.2,-,N/A,,Overcast,150,2013-11-08 22:35:00
4:55 PM,37.4,28.4,70,29.55,10.0,South,4.6,-,N/A,,Overcast,170,2013-11-08 22:55:00
5:15 PM,35.6,28.4,75,29.55,10.0,SSE,5.8,-,N/A,,Mostly Cloudy,160,2013-11-08 23:15:00
5:35 PM,35.6,30.2,81,29.56,10.0,SSW,4.6,-,N/A,,Overcast,200,2013-11-08 23:35:00
5:55 PM,37.4,32.0,81,29.57,10.0,SSW,5.8,-,N/A,,Overcast,200,2013-11-08 23:55:00
6:15 PM,35.6,32.0,87,29.57,10.0,South,5.8,-,N/A,,Overcast,180,2013-11-09 00:15:00
6:35 PM,35.6,32.0,87,29.57,10.0,South,4.6,-,N/A,,Overcast,170,2013-11-09 00:35:00
6:55 PM,35.6,32.0,87,29.57,10.0,South,4.6,-,N/A,,Overcast,170,2013-11-09 00:55:00
7:15 PM,35.6,32.0,87,29.57,10.0,SSW,4.6,-,N/A,,Overcast,200,2013-11-09 01:15:00
7:35 PM,33.8,32.0,93,29.57,10.0,WSW,4.6,-,N/A,,Overcast,240,2013-11-09 01:35:00
7:55 PM,33.8,32.0,93,29.57,10.0,West,4.6,-,N/A,,Overcast,270,2013-11-09 01:55:00
8:15 PM,33.8,32.0,93,29.56,10.0,West,6.9,-,N/A,,Overcast,270,2013-11-09 02:15:00
8:35 PM,33.8,32.0,93,29.56,10.0,West,6.9,-,N/A,,Overcast,260,2013-11-09 02:35:00
8:55 PM,35.6,32.0,87,29.57,10.0,West,6.9,-,N/A,,Overcast,270,2013-11-09 02:55:00
9:15 PM,35.6,32.0,87,29.58,10.0,West,9.2,-,N/A,,Overcast,280,2013-11-09 03:15:00
9:35 PM,37.4,33.8,87,29.58,10.0,WNW,11.5,-,N/A,,Overcast,290,2013-11-09 03:35:00
9:55 PM,37.4,33.8,87,29.59,10.0,WNW,10.4,-,N/A,,Mostly Cloudy,290,2013-11-09 03:55:00
10:15 PM,37.4,35.6,93,29.59,10.0,WNW,11.5,-,N/A,,Mostly Cloudy,290,2013-11-09 04:15:00
10:35 PM,37.4,35.6,93,29.60,10.0,WNW,10.4,-,N/A,,Overcast,300,2013-11-09 04:35:00
10:55 PM,37.4,35.6,93,29.61,10.0,WNW,11.5,-,N/A,,Overcast,300,2013-11-09 04:55:00
11:15 PM,37.4,35.6,93,29.62,10.0,WNW,12.7,-,N/A,,Overcast,300,2013-11-09 05:15:00
11:35 PM,37.4,35.6,93,29.62,10.0,NW,18.4,23.0,N/A,,Overcast,310,2013-11-09 05:35:00
11:55 PM,37.4,35.6,93,29.63,10.0,NW,24.2,27.6,N/A,,Overcast,310,2013-11-09 05:55:00